[[[{"header":{"parameterUnit":"kt","parameterCategory":2,"dx":1,"dy":1,"la1":30.253999710083008,"la2":30.299108505249023,"lo1":-89.0895004272461,"lo2":-89.04439544677734,"nx":28,"ny":28,"refTime":"2022-10-09T21:00:00:Z","depth":"0","parameterNumber":2,"parameterNumberName":"U-component_of_CURRENTS"},"data":[-0.2869,-0.2963,-0.3063,-0.3121,-0.3233,-0.3149,-0.311,-0.3,-0.2845,-0.2416,-0.2119,-0.2011,-0.1739,-0.147,-0.1165,-0.1108,-0.1047,-0.1032,-0.1085,-0.1192,-0.1231,-0.1269,-0.1177,-0.09,-0.09,-0.0751,-0.0749,-0.0748,-0.2961,-0.309,-0.3274,-0.3452,-0.3526,-0.3638,-0.3684,-0.3562,-0.3404,-0.3291,-0.3113,-0.2669,-0.2256,-0.1984,-0.1613,-0.1471,-0.144,-0.1429,-0.1377,-0.1368,-0.161,-0.1521,-0.1313,-0.1313,-0.1313,-0.1313,-0.1313,-0.1314,-0.3154,-0.3242,-0.3437,-0.3586,-0.3741,-0.3791,-0.3754,-0.3793,-0.3738,-0.357,-0.3665,-0.3343,-0.3009,-0.2462,-0.233,-0.1986,-0.2101,-0.1841,-0.1871,-0.19,-0.1783,-0.2103,-0.1995,-0.1997,-0.1999,-0.2,-0.2001,0,-0.3248,-0.3351,-0.3482,-0.3686,-0.378,-0.3863,-0.3904,-0.3927,-0.391,-0.3884,-0.3811,-0.3677,-0.3411,-0.2988,-0.2676,-0.2514,-0.2328,-0.2378,-0.2268,-0.1928,-0.194,-0.1919,-0.2279,-0.2153,-0.2155,-0.2158,-0.2159,-0.216,-0.3356,-0.3403,-0.362,-0.371,-0.3733,-0.3796,-0.384,-0.3821,-0.3819,-0.3801,-0.38,-0.3675,-0.3499,-0.3217,-0.2913,-0.2645,-0.2576,-0.2451,-0.232,-0.2223,-0.2256,-0.2272,-0.2237,-0.2191,-0.2187,-0.2184,-0.2181,0,-0.3406,-0.348,-0.3574,-0.3669,-0.3699,-0.3741,-0.3745,-0.3761,-0.3713,-0.3695,-0.3669,-0.3527,-0.3376,-0.3155,-0.2986,-0.283,-0.2602,-0.2641,-0.2547,-0.2549,-0.2298,-0.2311,-0.2185,-0.2129,-0.2539,-0.2537,-0.2536,0,-0.3444,-0.3472,-0.3568,-0.3597,-0.3682,-0.3639,-0.3659,-0.3634,-0.3567,-0.3551,-0.338,-0.3349,-0.3103,-0.3009,-0.2869,-0.2715,-0.2748,-0.2576,-0.2597,-0.2483,-0.2473,-0.2368,-0.2376,-0.2598,-0.2597,-0.2596,-0.2596,0,-0.3405,-0.3474,-0.3528,-0.3532,-0.3563,-0.3555,-0.3541,-0.3462,-0.3443,-0.3331,-0.3339,-0.3125,-0.308,-0.2939,-0.2812,-0.2795,-0.271,-0.2696,-0.2614,-0.2616,-0.2502,-0.2495,-0.2268,-0.2595,-0.2595,-0.2595,-0.2594,0,-0.3356,-0.3418,-0.3481,-0.3497,-0.3505,-0.3497,-0.346,-0.3437,-0.3322,-0.3285,-0.3144,-0.3069,-0.2902,-0.2861,-0.2709,-0.2738,-0.2708,-0.268,-0.2684,-0.264,-0.2705,-0.2563,-0.2528,-0.2404,-0.2784,-0.2785,-0.2785,0,-0.3301,-0.3388,-0.3331,-0.3381,-0.342,-0.3355,-0.3332,-0.328,-0.3221,-0.3182,-0.3024,-0.2987,-0.2877,-0.288,-0.277,-0.2756,-0.2699,-0.2705,-0.277,-0.2773,-0.2655,-0.2646,-0.2504,-0.2547,-0.2793,-0.2793,-0.2792,0,-0.3215,-0.3239,-0.3236,-0.3228,-0.3201,-0.3258,-0.3224,-0.3176,-0.3143,-0.311,-0.3035,-0.2948,-0.2906,-0.2878,-0.2833,-0.2768,-0.2721,-0.281,-0.281,-0.2772,-0.2722,-0.2669,-0.266,-0.2729,-0.2726,-0.2724,-0.2798,0,-0.3052,-0.3047,-0.3132,-0.311,-0.3133,-0.3224,-0.3148,-0.3181,-0.3119,-0.3045,-0.3018,-0.3002,-0.2962,-0.2954,-0.292,-0.2847,-0.2912,-0.2913,-0.285,-0.2874,-0.2922,-0.2916,-0.2997,-0.2998,-0.2999,-0.3,0,0,-0.2906,-0.2905,-0.2935,-0.2969,-0.2968,-0.2945,-0.2981,-0.2965,-0.3007,-0.2977,-0.2984,-0.296,-0.2952,-0.2868,-0.2878,-0.2947,-0.2978,-0.2894,-0.291,-0.29,-0.2891,-0.2932,-0.2926,-0.3002,-0.3002,-0.3003,-0.3003,0,-0.283,-0.2785,-0.2874,-0.2891,-0.2924,-0.29,-0.2919,-0.2945,-0.2914,-0.2961,-0.2887,-0.2883,-0.2965,-0.2897,-0.287,-0.2963,-0.2933,-0.3017,-0.2952,-0.292,-0.2909,-0.2899,-0.2937,-0.2931,-0.3005,-0.3005,-0.3005,0,-0.2669,-0.2651,-0.2699,-0.2697,-0.2725,-0.275,-0.2685,-0.2792,-0.2761,-0.2741,-0.2757,-0.2776,-0.2776,-0.2833,-0.2865,-0.2849,-0.2896,-0.2913,-0.2913,-0.287,-0.2834,-0.2825,-0.2816,-0.2904,-0.2903,-0.2902,0,0,-0.2605,-0.2673,-0.2631,-0.2674,-0.2694,-0.2668,-0.2699,-0.2686,-0.272,-0.2732,-0.2724,-0.2737,-0.2739,-0.276,-0.2819,-0.2893,-0.2883,-0.2891,-0.2896,-0.2899,-0.2859,-0.2825,-0.2818,-0.2897,-0.2897,-0.2897,0,0,-0.2608,-0.2601,-0.2511,-0.2538,-0.2577,-0.2604,-0.2682,-0.2614,-0.2661,-0.2654,-0.2597,-0.2605,-0.2674,-0.2714,-0.2653,-0.2748,-0.2744,-0.2758,-0.2665,-0.2672,-0.2677,-0.2599,-0.2563,0,0,0,0,0,-0.2555,-0.2605,-0.2522,-0.2515,-0.2501,-0.2616,-0.2625,-0.26,-0.2506,-0.2581,-0.257,-0.2515,-0.2684,-0.2631,-0.2645,-0.2614,-0.2835,-0.2846,-0.2856,-0.2758,-0.2766,-0.2772,0,0,0,0,0,0,-0.2553,-0.2543,-0.2523,-0.2533,-0.2531,-0.261,-0.249,-0.2486,-0.2501,-0.2493,-0.2515,-0.2516,-0.2508,-0.262,-0.2634,-0.2603,-0.2558,-0.2839,-0.2848,-0.2857,-0.2761,-0.2767,-0.2772,0,0,0,0,0,-0.2551,-0.2543,-0.2504,-0.2536,-0.2534,-0.2516,-0.2486,-0.2482,-0.2495,-0.2502,-0.2501,-0.2473,-0.251,-0.2521,-0.2628,-0.2596,-0.2548,-0.2554,-0.2845,-0.2853,-0.2859,-0.2764,0,0,0,0,0,0,-0.255,-0.2561,-0.2505,-0.2508,-0.2501,-0.2515,-0.2508,-0.248,-0.2503,-0.2502,-0.2459,-0.2453,-0.2513,-0.252,-0.2529,-0.2592,-0.254,-0.2546,-0.2549,-0.2851,-0.2857,-0.2862,0,0,0,0,0,0,-0.2566,-0.2562,-0.2507,-0.2463,-0.246,-0.2515,-0.2508,-0.2575,-0.2504,-0.246,-0.2454,-0.2456,-0.2501,-0.2521,-0.2527,-0.2634,-0.2534,-0.2539,-0.2543,-0.2545,-0.2855,-0.286,0,0,0,0,0,0,-0.2566,-0.2563,-0.2462,-0.246,-0.2458,-0.2482,-0.2577,-0.2562,-0.246,-0.246,-0.245,-0.2446,-0.2502,-0.2508,-0.2526,-0.2631,-0.2633,-0.2534,-0.2538,-0.254,-0.2542,0,0,0,0,0,0,0,-0.2566,-0.2567,-0.249,-0.2458,-0.2455,-0.2527,-0.2528,-0.2529,-0.2459,-0.2455,-0.2451,-0.2448,-0.2505,-0.251,-0.2516,-0.2628,0,0,-0.2534,-0.2536,0,0,0,0,0,0,0,0,-0.257,-0.2568,-0.249,-0.249,-0.249,-0.2527,-0.2528,-0.2528,-0.2458,-0.2455,-0.2452,-0.2449,-0.2506,-0.2511,-0.2515,0,0,0,0,0,0,0,0,0,0,0,0,0,0,0,-0.249,-0.249,0,-0.2527,-0.2528,-0.2528,-0.2458,-0.2455,-0.2453,-0.245,-0.2507,-0.2511,-0.2515,0,0,0,0,0,0,0,0,0,0,0,0,0,0,0,0,0,0,0,0,0,0,0,0,0,0,0,0,0,0,0,0,0,0,0,0,0,0,0,0,0,0,0,0,0,0,0,0,0,0,0,0,0,0,0,0,0,0,0,0,0,0,0,0,0,0,0,0,0]}],[{"header":{"parameterUnit":"kt","parameterCategory":2,"dx":1,"dy":1,"la1":30.253999710083008,"la2":30.299108505249023,"lo1":-89.0895004272461,"lo2":-89.04439544677734,"nx":28,"ny":28,"refTime":"2022-10-09T21:00:00:Z","depth":"0","parameterNumber":3,"parameterNumberName":"V-component_of_CURRENTS"},"data":[-0.0908,-0.119,-0.1329,-0.161,-0.1714,-0.1758,-0.173,-0.1504,-0.134,-0.0972,-0.0727,-0.0557,-0.0182,0.0168,0.0384,0.0385,0.0505,0.0458,0.0541,0.0415,0.0404,0.0395,0.0438,0.0496,0.0497,0.0754,0.0756,0.0758,-0.0803,-0.1002,-0.1223,-0.1441,-0.1574,-0.1564,-0.1591,-0.1507,-0.1359,-0.1214,-0.099,-0.0668,-0.042,-0.0195,0.0034,0.0124,0.0168,0.0193,0.0277,0.0314,0.0092,0.0122,0.0114,0.0114,0.0114,0.0114,0.0114,0.0114,-0.0638,-0.0806,-0.1015,-0.1204,-0.132,-0.1406,-0.1431,-0.139,-0.1349,-0.1181,-0.1088,-0.0832,-0.059,-0.0304,-0.0214,-0.0046,-0.0031,0.0028,0.0082,0.0116,0.0194,-0.0042,-0.01,-0.01,-0.01,-0.01,-0.01,0,-0.052,-0.0599,-0.0752,-0.0962,-0.1059,-0.1158,-0.1197,-0.1236,-0.1142,-0.1094,-0.0973,-0.0841,-0.0656,-0.0441,-0.0274,-0.0178,-0.0006,-0.0083,0.0018,0.0135,0.0191,0.0225,-0.0007,-0.0046,-0.0046,-0.0046,-0.0045,-0.0045,-0.0362,-0.0468,-0.0639,-0.074,-0.0771,-0.0853,-0.0905,-0.083,-0.0865,-0.079,-0.0835,-0.0717,-0.059,-0.0415,-0.0274,-0.013,-0.0002,-0.0077,-0.0017,0.0082,0.0125,0.017,0.0216,-0.0042,-0.0042,-0.0043,-0.0043,0,-0.029,-0.033,-0.048,-0.0552,-0.0567,-0.0647,-0.065,-0.0711,-0.0629,-0.0689,-0.0679,-0.0532,-0.0423,-0.0279,-0.0184,-0.0104,0.0013,-0.0014,-0.001,-0.003,0.0069,0.0123,0.0163,0.0215,-0.0036,-0.0036,-0.0037,0,-0.0162,-0.0243,-0.0315,-0.0382,-0.0492,-0.0422,-0.0497,-0.0462,-0.0436,-0.0487,-0.0338,-0.0352,-0.0198,-0.0153,-0.0046,0.0018,0.0,0.0081,0.0058,0.0063,0.0062,0.0121,0.0174,0.0081,0.0082,0.0082,0.0083,0,-0.0132,-0.0126,-0.0235,-0.0245,-0.0274,-0.028,-0.0266,-0.0226,-0.0247,-0.0214,-0.0255,-0.0164,-0.0159,-0.0087,0.0028,0.0043,0.0054,0.0061,0.0074,0.0072,0.0047,0.0043,0.0133,0.0083,0.0083,0.0084,0.0084,0,-0.0033,-0.0089,-0.0113,-0.0237,-0.0234,-0.0167,-0.024,-0.0162,-0.0129,-0.0129,-0.0091,-0.0072,0.0011,0.0058,0.0124,0.0123,0.0144,0.0159,0.0155,0.013,0.01,0.0008,0.0048,0.0142,0.0093,0.0094,0.0094,0,-0.017,-0.0153,-0.0106,-0.01,-0.0143,-0.0127,-0.0054,-0.0021,-0.0013,-0.0025,0.003,0.0046,0.0147,0.0122,0.0176,0.0175,0.0196,0.0223,0.0116,0.0113,0.0067,0.0117,0.0118,0.0056,0.01,0.0099,0.0099,0,-0.027,-0.028,-0.027,-0.0332,-0.0236,-0.0227,-0.0104,-0.0084,-0.0112,0.0005,-0.0032,0.0142,0.0098,0.0143,0.0168,0.0194,0.0204,0.0176,0.0173,0.0109,0.0132,0.0124,0.0119,0.0174,0.0174,0.0174,0.0103,0,-0.042,-0.0423,-0.038,-0.031,-0.027,-0.0236,-0.0177,-0.0145,-0.0147,-0.0124,-0.0077,-0.0006,0.0028,0.0094,0.0123,0.0176,0.0139,0.0126,0.0074,0.0135,0.01,0.0097,0.0122,0.0122,0.0121,0.012,0,0,-0.0593,-0.055,-0.0554,-0.0469,-0.0467,-0.0468,-0.0404,-0.034,-0.0262,-0.0278,-0.0259,-0.0152,-0.0085,-0.001,0.0049,0.0085,0.0048,0.008,0.0127,0.0128,0.0129,0.0097,0.0095,0.0119,0.0119,0.0118,0.0118,0,-0.063,-0.0657,-0.0593,-0.0559,-0.0513,-0.0492,-0.0479,-0.0419,-0.0401,-0.0306,-0.0312,-0.0266,-0.0135,-0.0093,-0.0053,0.0062,0.0022,0.0103,0.0143,0.0122,0.0124,0.0125,0.0095,0.0093,0.0116,0.0116,0.0117,0,-0.0731,-0.0715,-0.0704,-0.0647,-0.0619,-0.054,-0.0589,-0.0528,-0.0463,-0.0486,-0.0383,-0.0361,-0.0296,-0.0188,-0.0139,-0.0156,-0.0026,-0.0021,-0.0015,-0.0024,-0.0049,-0.0045,-0.0041,-0.0102,-0.0103,-0.0104,0,0,-0.0756,-0.0736,-0.0699,-0.0651,-0.0633,-0.0605,-0.0574,-0.056,-0.0514,-0.0497,-0.0453,-0.0397,-0.0329,-0.0286,-0.0218,-0.0116,-0.0149,-0.005,-0.0039,-0.0031,-0.0035,-0.0058,-0.0053,-0.0107,-0.0107,-0.0107,0,0,-0.0757,-0.0735,-0.0755,-0.0696,-0.0653,-0.0594,-0.0557,-0.056,-0.0511,-0.0519,-0.0494,-0.0479,-0.0385,-0.0351,-0.0405,-0.0212,-0.0251,-0.0239,-0.024,-0.0227,-0.0217,-0.0244,-0.0407,0,0,0,0,0,-0.079,-0.0741,-0.076,-0.0749,-0.0676,-0.0594,-0.0582,-0.0563,-0.0595,-0.0558,-0.0535,-0.0528,-0.0364,-0.0412,-0.0392,-0.032,-0.0154,-0.0146,-0.0138,-0.0116,-0.0102,-0.009,0,0,0,0,0,0,-0.0786,-0.0772,-0.0761,-0.0706,-0.0689,-0.0597,-0.0631,-0.0624,-0.0597,-0.0599,-0.0535,-0.0526,-0.0499,-0.0419,-0.0402,-0.0334,-0.0412,-0.0151,-0.0144,-0.0137,-0.0111,-0.01,-0.009,0,0,0,0,0,-0.0782,-0.0771,-0.0665,-0.0706,-0.0691,-0.0654,-0.0633,-0.0627,-0.0606,-0.0551,-0.0543,-0.0596,-0.0499,-0.0483,-0.0409,-0.0342,-0.0424,-0.0418,-0.0146,-0.0141,-0.0136,-0.0105,0,0,0,0,0,0,-0.0779,-0.0757,-0.0661,-0.0654,-0.0727,-0.0658,-0.0649,-0.063,-0.0559,-0.0551,-0.061,-0.0612,-0.0497,-0.0485,-0.0473,-0.0345,-0.0433,-0.0427,-0.0423,-0.0142,-0.0138,-0.0134,0,0,0,0,0,0,-0.0763,-0.0752,-0.0657,-0.0686,-0.0683,-0.0662,-0.0654,-0.0582,-0.0558,-0.0621,-0.0621,-0.0611,-0.0514,-0.0487,-0.0477,-0.0366,-0.0441,-0.0435,-0.043,-0.0428,-0.0138,-0.0135,0,0,0,0,0,0,-0.0758,-0.0748,-0.0688,-0.0685,-0.0682,-0.061,-0.0597,-0.0521,-0.059,-0.0624,-0.0595,-0.0598,-0.0516,-0.0506,-0.048,-0.0373,-0.0368,-0.044,-0.0436,-0.0433,-0.0431,0,0,0,0,0,0,0,-0.0753,-0.0826,-0.0699,-0.0684,-0.0682,-0.0598,-0.0596,-0.0594,-0.0591,-0.0593,-0.0595,-0.0597,-0.0475,-0.0469,-0.0462,-0.0379,0,0,-0.0441,-0.0438,0,0,0,0,0,0,0,0,-0.0829,-0.0827,-0.0699,-0.0698,-0.0697,-0.0598,-0.0596,-0.0595,-0.0591,-0.0593,-0.0594,-0.0596,-0.0473,-0.0468,-0.0463,0,0,0,0,0,0,0,0,0,0,0,0,0,0,0,-0.0699,-0.0698,0,-0.0597,-0.0596,-0.0595,-0.0591,-0.0593,-0.0594,-0.0595,-0.0472,-0.0468,-0.0463,0,0,0,0,0,0,0,0,0,0,0,0,0,0,0,0,0,0,0,0,0,0,0,0,0,0,0,0,0,0,0,0,0,0,0,0,0,0,0,0,0,0,0,0,0,0,0,0,0,0,0,0,0,0,0,0,0,0,0,0,0,0,0,0,0,0,0,0,0]}]],[[{"header":{"parameterUnit":"kt","parameterCategory":2,"dx":1,"dy":1,"la1":30.253999710083008,"la2":30.299108505249023,"lo1":-89.0895004272461,"lo2":-89.04439544677734,"nx":28,"ny":28,"refTime":"2022-10-09T21:00:00:Z","depth":"2","parameterNumber":2,"parameterNumberName":"U-component_of_CURRENTS"},"data":[-0.1462,-0.1414,-0.1376,-0.1371,-0.1467,-0.1495,-0.1508,-0.1268,-0.1225,-0.105,-0.1039,-0.1041,-0.1196,-0.0947,-0.0906,-0.0879,-0.1047,-0.0827,-0.1371,-0.1427,-0.1467,-0.1585,-0.1442,0,0,0,0,0,-0.1507,-0.1505,-0.1521,-0.1601,-0.1667,-0.1847,-0.196,-0.1857,-0.1692,-0.1761,-0.1613,-0.1364,-0.119,-0.1331,-0.1265,-0.1206,-0.1212,-0.1172,-0.1182,-0.1229,-0.1271,-0.1146,-0.081,-0.0808,-0.0806,-0.0805,0,0,-0.1594,-0.1579,-0.1621,-0.1718,-0.1876,-0.2004,-0.2035,-0.2159,-0.2161,-0.2131,-0.2199,-0.2043,-0.2059,-0.1785,-0.1683,-0.1714,-0.1846,-0.1738,-0.1756,-0.178,-0.1679,-0.1647,-0.1484,-0.1487,-0.1489,-0.1492,-0.1493,0,-0.1708,-0.1711,-0.1774,-0.1881,-0.1999,-0.2187,-0.2362,-0.242,-0.2655,-0.2656,-0.2622,-0.2547,-0.2545,-0.2276,-0.2215,-0.209,-0.221,-0.2089,-0.25,-0.1934,-0.1911,-0.1941,-0.1965,-0.1811,-0.1816,-0.182,-0.1822,-0.1824,-0.1843,-0.1832,-0.1992,-0.2063,-0.2129,-0.2298,-0.243,-0.2669,-0.2753,-0.2941,-0.2934,-0.2979,-0.285,-0.2748,-0.2609,-0.2468,-0.255,-0.2209,-0.2074,-0.2414,-0.2443,-0.245,-0.2456,-0.1876,-0.1869,-0.1864,-0.1859,0,-0.1931,-0.2004,-0.2061,-0.2252,-0.2333,-0.2405,-0.2657,-0.2763,-0.2903,-0.2978,-0.2987,-0.3058,-0.2992,-0.2953,-0.2866,-0.2737,-0.2625,-0.2559,-0.2373,-0.2362,-0.2477,-0.2478,-0.2407,-0.2402,-0.2399,-0.2396,-0.2393,0,-0.2102,-0.2134,-0.2286,-0.2295,-0.2415,-0.2557,-0.2677,-0.2782,-0.2914,-0.2975,-0.3009,-0.2998,-0.2938,-0.2904,-0.28,-0.2652,-0.2732,-0.2495,-0.2515,-0.2344,-0.2323,-0.2662,-0.2668,-0.2607,-0.2606,-0.2605,-0.2605,0,-0.2222,-0.2307,-0.2329,-0.2357,-0.2524,-0.2575,-0.2677,-0.2791,-0.2864,-0.2931,-0.3011,-0.2933,-0.2915,-0.2832,-0.273,-0.2721,-0.2682,-0.2682,-0.2537,-0.2534,-0.2373,-0.2354,-0.2604,-0.2604,-0.2604,-0.2604,-0.2603,0,-0.2327,-0.2383,-0.2385,-0.2555,-0.2578,-0.2602,-0.2749,-0.2789,-0.2855,-0.2913,-0.2895,-0.2897,-0.2783,-0.2738,-0.2643,-0.2664,-0.2632,-0.2611,-0.2616,-0.2518,-0.2574,-0.2351,-0.2319,-0.271,-0.2711,-0.2711,-0.2711,0,-0.2452,-0.2456,-0.2469,-0.252,-0.2543,-0.2616,-0.2653,-0.2706,-0.2765,-0.2838,-0.2762,-0.2794,-0.2698,-0.2722,-0.2645,-0.2648,-0.2599,-0.2589,-0.2699,-0.2702,-0.2503,-0.2513,-0.2301,-0.2336,-0.2713,-0.2713,-0.2713,0,-0.2492,-0.2531,-0.2516,-0.2528,-0.2552,-0.2625,-0.265,-0.2666,-0.2703,-0.2745,-0.2761,-0.2711,-0.2734,-0.2722,-0.2694,-0.2645,-0.2609,-0.2687,-0.2688,-0.2627,-0.2656,-0.2535,-0.2523,-0.2641,-0.2639,-0.2638,-0.2714,0,-0.2453,-0.2449,-0.2517,-0.2486,-0.2539,-0.26,-0.2592,-0.2668,-0.2687,-0.2674,-0.2731,-0.2743,-0.2773,-0.2779,-0.2735,-0.2705,-0.2767,-0.2782,-0.2704,-0.2756,-0.2802,-0.28,-0.284,-0.2841,-0.2843,-0.2843,0,0,-0.2423,-0.2391,-0.2463,-0.2455,-0.2473,-0.2495,-0.2496,-0.2507,-0.2581,-0.2604,-0.2626,-0.2718,-0.2714,-0.2669,-0.2692,-0.2767,-0.281,-0.2714,-0.2784,-0.2777,-0.2771,-0.281,-0.2807,-0.2845,-0.2846,-0.2846,-0.2847,0,-0.2361,-0.2382,-0.2427,-0.2435,-0.2461,-0.2463,-0.2471,-0.2518,-0.2515,-0.2587,-0.2561,-0.2596,-0.2717,-0.2675,-0.2659,-0.278,-0.2758,-0.286,-0.2797,-0.2794,-0.2786,-0.2778,-0.2815,-0.2812,-0.2849,-0.2849,-0.2849,0,-0.2249,-0.225,-0.2302,-0.2301,-0.2334,-0.2337,-0.2298,-0.239,-0.2364,-0.2371,-0.2438,-0.2488,-0.2509,-0.2593,-0.2637,-0.2617,-0.2708,-0.2714,-0.2715,-0.267,-0.2664,-0.2658,-0.2653,-0.2691,-0.2689,-0.2688,0,0,-0.2187,-0.2261,-0.2227,-0.2283,-0.2298,-0.2285,-0.2311,-0.2302,-0.2346,-0.2361,-0.2392,-0.2447,-0.2466,-0.2492,-0.2573,-0.2657,-0.2653,-0.2682,-0.269,-0.2695,-0.2654,-0.265,-0.2648,-0.2681,-0.2681,-0.2681,0,0,-0.2188,-0.2205,-0.2142,-0.2186,-0.2204,-0.2239,-0.2309,-0.2252,-0.2302,-0.2319,-0.2286,-0.2297,-0.2384,-0.2435,-0.235,-0.2511,-0.2501,-0.2519,-0.2406,-0.2417,-0.2425,-0.2341,-0.2273,0,0,0,0,0,-0.2153,-0.2206,-0.2147,-0.2149,-0.2169,-0.2248,-0.2256,-0.2245,-0.2191,-0.223,-0.2259,-0.221,-0.2413,-0.2337,-0.2351,-0.2343,-0.2597,-0.2612,-0.2626,-0.2507,-0.2518,-0.2527,0,0,0,0,0,0,-0.2154,-0.2154,-0.2148,-0.2175,-0.218,-0.2245,-0.2176,-0.2175,-0.2188,-0.2181,-0.2209,-0.2211,-0.2216,-0.2327,-0.234,-0.2332,-0.2269,-0.2603,-0.2615,-0.2627,-0.2511,-0.252,-0.2527,0,0,0,0,0,-0.2154,-0.2155,-0.2176,-0.2176,-0.2181,-0.2181,-0.2173,-0.2172,-0.2178,-0.2203,-0.2203,-0.2166,-0.2217,-0.2228,-0.2334,-0.2325,-0.226,-0.2265,-0.2611,-0.2621,-0.263,-0.2515,0,0,0,0,0,0,-0.2155,-0.2165,-0.2178,-0.2182,-0.2146,-0.2178,-0.2177,-0.2169,-0.2198,-0.2199,-0.2161,-0.2155,-0.222,-0.2228,-0.2236,-0.2322,-0.2252,-0.2257,-0.226,-0.2619,-0.2626,-0.2633,0,0,0,0,0,0,-0.2165,-0.2168,-0.218,-0.2143,-0.2142,-0.2176,-0.2175,-0.2237,-0.2199,-0.2154,-0.2151,-0.2158,-0.2209,-0.2228,-0.2234,-0.2333,-0.2246,-0.2251,-0.2254,-0.2256,-0.2625,-0.2631,0,0,0,0,0,0,-0.2167,-0.2169,-0.2142,-0.2141,-0.214,-0.2178,-0.2233,-0.2253,-0.2164,-0.2154,-0.2156,-0.2152,-0.221,-0.2216,-0.2233,-0.2329,-0.2332,-0.2246,-0.225,-0.2252,-0.2253,0,0,0,0,0,0,0,-0.2169,-0.2143,-0.2158,-0.214,-0.2139,-0.2214,-0.2215,-0.2215,-0.2163,-0.216,-0.2157,-0.2154,-0.2218,-0.2223,-0.2229,-0.2326,0,0,-0.2246,-0.2248,0,0,0,0,0,0,0,0,-0.2143,-0.2143,-0.2158,-0.2159,-0.216,-0.2214,-0.2214,-0.2215,-0.2162,-0.216,-0.2157,-0.2155,-0.2219,-0.2224,-0.2228,0,0,0,0,0,0,0,0,0,0,0,0,0,0,0,-0.2158,-0.2159,0,-0.2214,-0.2214,-0.2215,-0.2162,-0.216,-0.2158,-0.2156,-0.2221,-0.2224,-0.2228,0,0,0,0,0,0,0,0,0,0,0,0,0,0,0,0,0,0,0,0,0,0,0,0,0,0,0,0,0,0,0,0,0,0,0,0,0,0,0,0,0,0,0,0,0,0,0,0,0,0,0,0,0,0,0,0,0,0,0,0,0,0,0,0,0,0,0,0,0]}],[{"header":{"parameterUnit":"kt","parameterCategory":2,"dx":1,"dy":1,"la1":30.253999710083008,"la2":30.299108505249023,"lo1":-89.0895004272461,"lo2":-89.04439544677734,"nx":28,"ny":28,"refTime":"2022-10-09T21:00:00:Z","depth":"2","parameterNumber":3,"parameterNumberName":"V-component_of_CURRENTS"},"data":[-0.043,-0.0564,-0.0642,-0.0802,-0.086,-0.0883,-0.0857,-0.0819,-0.0732,-0.0725,-0.0631,-0.063,-0.0344,-0.0223,-0.009,0.007,0.0119,0.0085,0.0058,0.0071,0.0076,0.0198,0.0141,0,0,0,0,0,-0.0406,-0.0501,-0.0575,-0.0686,-0.0754,-0.0729,-0.0671,-0.0646,-0.0632,-0.0549,-0.0515,-0.0402,-0.034,-0.0096,0.0097,0.0133,0.0157,0.0183,0.0207,0.0211,0.0216,0.0179,0.0166,0.0167,0.0168,0.0168,0,0,-0.0389,-0.0436,-0.0544,-0.0606,-0.063,-0.065,-0.061,-0.0559,-0.0491,-0.0363,-0.0272,-0.0196,-0.0063,-0.0019,0.0074,0.0229,0.0202,0.0202,0.0206,0.021,0.0171,0.0153,0.0156,0.0156,0.0157,0.0157,0.0157,0,-0.0427,-0.0452,-0.0481,-0.057,-0.0561,-0.0532,-0.0448,-0.0405,-0.0214,-0.013,-0.0018,0.0015,0.0143,0.0153,0.0206,0.0204,0.0291,0.0272,0.0336,0.0229,0.0215,0.0211,0.021,0.0234,0.0235,0.0235,0.0236,0.0236,-0.0468,-0.0486,-0.0505,-0.0529,-0.0499,-0.0423,-0.0379,-0.021,-0.0136,0.0092,0.0122,0.0246,0.0256,0.0306,0.0325,0.0324,0.0347,0.0293,0.0241,0.0274,0.027,0.0266,0.0262,0.0244,0.0243,0.0242,0.0242,0,-0.0475,-0.0511,-0.0503,-0.0456,-0.0433,-0.0373,-0.0237,-0.0162,0.0001,0.011,0.0147,0.0293,0.034,0.0362,0.0388,0.0343,0.0343,0.0328,0.0303,0.0297,0.027,0.0265,0.0306,0.0305,0.0304,0.0303,0.0303,0,-0.0482,-0.0462,-0.0476,-0.0472,-0.0411,-0.0328,-0.0211,-0.0105,0.004,0.0123,0.0228,0.0285,0.0308,0.0334,0.0325,0.0305,0.0339,0.0265,0.0265,0.0243,0.0237,0.0281,0.0277,0.0311,0.0311,0.031,0.031,0,-0.0467,-0.0455,-0.0466,-0.0453,-0.0385,-0.0314,-0.0243,-0.0094,-0.0017,0.0132,0.0204,0.0261,0.029,0.0292,0.0288,0.027,0.0311,0.0291,0.0255,0.0253,0.0247,0.0241,0.0309,0.0309,0.0309,0.0309,0.0308,0,-0.0448,-0.0465,-0.0467,-0.0413,-0.0391,-0.0338,-0.0198,-0.013,0.0007,0.0082,0.0153,0.0196,0.0233,0.02,0.0227,0.0209,0.0216,0.0217,0.0219,0.0185,0.0171,0.0171,0.0213,0.0245,0.0244,0.0244,0.0243,0,-0.046,-0.0477,-0.0453,-0.0422,-0.0423,-0.0355,-0.028,-0.0199,-0.0113,-0.0011,0.0027,0.0117,0.009,0.0138,0.014,0.0172,0.0183,0.0153,0.0203,0.0206,0.0133,0.0176,0.0151,0.0203,0.0234,0.0235,0.0235,0,-0.0468,-0.0486,-0.0481,-0.0467,-0.0422,-0.0399,-0.033,-0.0256,-0.0178,-0.0126,-0.0028,0.004,0.0068,0.011,0.0133,0.0141,0.0169,0.0141,0.0142,0.0137,0.0214,0.0169,0.0171,0.016,0.0161,0.0162,0.0228,0,-0.0467,-0.0478,-0.0481,-0.0453,-0.0429,-0.0419,-0.0365,-0.0318,-0.0262,-0.0208,-0.0113,-0.0076,0.0016,0.0049,0.006,0.0124,0.013,0.0121,0.0095,0.0136,0.0164,0.0169,0.0103,0.0104,0.0104,0.0104,0,0,-0.0465,-0.0476,-0.0478,-0.0464,-0.0443,-0.042,-0.0397,-0.0364,-0.0308,-0.0261,-0.0253,-0.0107,-0.0071,0.0007,0.0038,0.0059,0.0072,0.0072,0.0128,0.0131,0.0133,0.016,0.0166,0.0104,0.0104,0.0104,0.0104,0,-0.0456,-0.0468,-0.0478,-0.0464,-0.0439,-0.0416,-0.0414,-0.037,-0.0335,-0.028,-0.024,-0.0188,-0.0095,-0.0048,-0.0012,0.0049,0.0071,0.01,0.0112,0.0128,0.013,0.0133,0.016,0.0165,0.0104,0.0104,0.0104,0,-0.0437,-0.0434,-0.0448,-0.0443,-0.0423,-0.0403,-0.0391,-0.0378,-0.0342,-0.0323,-0.0256,-0.0215,-0.0154,-0.0086,-0.0053,-0.006,0.0048,0.0031,0.0033,0.0033,0.0048,0.0052,0.0056,0.0003,0.0002,0.0001,0,0,-0.0421,-0.0441,-0.0424,-0.0437,-0.0431,-0.0398,-0.0389,-0.0368,-0.0342,-0.0329,-0.0283,-0.0223,-0.017,-0.0144,-0.0093,-0.0046,-0.0038,0.0015,0.002,0.0023,0.0025,0.0042,0.0047,-0.0001,-0.0002,-0.0002,0,0,-0.041,-0.0411,-0.0397,-0.0418,-0.0401,-0.0372,-0.037,-0.035,-0.0323,-0.031,-0.0272,-0.0262,-0.0203,-0.0175,-0.0217,-0.0071,-0.0084,-0.0076,-0.0105,-0.0099,-0.0094,-0.0106,-0.0183,0,0,0,0,0,-0.039,-0.0414,-0.0402,-0.0402,-0.0387,-0.0378,-0.0373,-0.0347,-0.0327,-0.0329,-0.0294,-0.0269,-0.0172,-0.021,-0.0201,-0.0142,-0.0036,-0.003,-0.0024,-0.0049,-0.0042,-0.0036,0,0,0,0,0,0,-0.039,-0.0391,-0.0401,-0.0376,-0.0372,-0.0378,-0.0348,-0.0341,-0.0327,-0.0323,-0.0276,-0.0267,-0.0239,-0.0212,-0.0204,-0.0148,-0.0186,-0.0034,-0.0029,-0.0024,-0.0046,-0.0041,-0.0036,0,0,0,0,0,-0.039,-0.0391,-0.038,-0.0375,-0.0371,-0.034,-0.0348,-0.0341,-0.0326,-0.0286,-0.0277,-0.0308,-0.024,-0.0231,-0.0207,-0.0152,-0.0191,-0.0188,-0.003,-0.0026,-0.0023,-0.0044,0,0,0,0,0,0,-0.039,-0.0375,-0.0378,-0.0375,-0.0373,-0.0339,-0.0335,-0.0342,-0.0289,-0.0281,-0.0316,-0.0314,-0.0241,-0.0234,-0.0227,-0.0153,-0.0195,-0.0192,-0.019,-0.0027,-0.0024,-0.0021,0,0,0,0,0,0,-0.0374,-0.0373,-0.0376,-0.0375,-0.0372,-0.0338,-0.0335,-0.0308,-0.0288,-0.0321,-0.0318,-0.0316,-0.0248,-0.0236,-0.023,-0.019,-0.0198,-0.0195,-0.0194,-0.0192,-0.0025,-0.0022,0,0,0,0,0,0,-0.0373,-0.0371,-0.0376,-0.0373,-0.037,-0.0331,-0.0312,-0.0295,-0.0299,-0.0323,-0.0298,-0.0297,-0.025,-0.0244,-0.0233,-0.0195,-0.0191,-0.0198,-0.0196,-0.0195,-0.0194,0,0,0,0,0,0,0,-0.0371,-0.0393,-0.0399,-0.0371,-0.0368,-0.0347,-0.0346,-0.0345,-0.0299,-0.0299,-0.0298,-0.0298,-0.0213,-0.021,-0.0207,-0.0199,0,0,-0.0198,-0.0197,0,0,0,0,0,0,0,0,-0.0393,-0.0393,-0.0399,-0.0399,-0.0398,-0.0347,-0.0346,-0.0345,-0.0299,-0.0299,-0.0298,-0.0298,-0.0213,-0.021,-0.0208,0,0,0,0,0,0,0,0,0,0,0,0,0,0,0,-0.0399,-0.0399,0,-0.0347,-0.0346,-0.0345,-0.0299,-0.0299,-0.0298,-0.0298,-0.0212,-0.021,-0.0208,0,0,0,0,0,0,0,0,0,0,0,0,0,0,0,0,0,0,0,0,0,0,0,0,0,0,0,0,0,0,0,0,0,0,0,0,0,0,0,0,0,0,0,0,0,0,0,0,0,0,0,0,0,0,0,0,0,0,0,0,0,0,0,0,0,0,0,0,0]}]],[[{"header":{"parameterUnit":"kt","parameterCategory":2,"dx":1,"dy":1,"la1":30.253999710083008,"la2":30.299108505249023,"lo1":-89.0895004272461,"lo2":-89.04439544677734,"nx":28,"ny":28,"refTime":"2022-10-09T21:00:00:Z","depth":"4","parameterNumber":2,"parameterNumberName":"U-component_of_CURRENTS"},"data":[-0.0441,-0.0383,-0.0336,-0.0228,-0.0174,-0.0144,-0.0177,-0.0231,-0.0242,-0.0306,-0.0399,-0.047,-0.0652,-0.058,-0.0825,-0.0871,-0.1022,-0.1192,-0.1193,-0.1477,-0.1491,-0.1504,-0.1692,0,0,0,0,0,-0.0488,-0.0426,-0.0373,-0.0312,-0.0295,-0.0276,-0.0322,-0.0371,-0.0423,-0.0394,-0.0444,-0.0522,-0.0681,-0.0767,-0.0867,-0.0974,-0.1245,-0.1093,-0.133,-0.1486,-0.1502,-0.1679,0,0,0,0,0,0,-0.0548,-0.0503,-0.0469,-0.0423,-0.0399,-0.0375,-0.0405,-0.0411,-0.0432,-0.0529,-0.0486,-0.0645,-0.0772,-0.0937,-0.098,-0.1097,-0.1201,-0.1258,-0.1285,-0.1302,-0.1403,-0.1153,-0.0961,0,0,0,0,0,-0.0603,-0.0594,-0.0572,-0.0523,-0.0503,-0.0491,-0.0501,-0.0496,-0.0589,-0.0664,-0.0668,-0.0803,-0.0881,-0.115,-0.1152,-0.1246,-0.1633,-0.1467,-0.1481,-0.1764,-0.1593,-0.1563,-0.1568,-0.1562,-0.1564,-0.1565,-0.1566,0,-0.0662,-0.0651,-0.0631,-0.0611,-0.0613,-0.0606,-0.0612,-0.0697,-0.0726,-0.0811,-0.0832,-0.0989,-0.1148,-0.1228,-0.149,-0.1591,-0.1576,-0.1506,-0.1808,-0.1618,-0.1585,-0.1586,-0.1586,-0.1579,-0.1578,-0.1577,-0.1576,0,-0.0667,-0.0708,-0.0696,-0.0707,-0.0704,-0.0687,-0.0731,-0.0755,-0.0866,-0.0933,-0.1025,-0.1246,-0.1424,-0.1611,-0.1787,-0.1833,-0.189,-0.1763,-0.1707,-0.1673,-0.1612,-0.1607,-0.16,-0.1595,-0.1591,-0.1588,-0.1585,0,-0.0709,-0.0719,-0.0746,-0.0748,-0.0723,-0.0795,-0.0812,-0.0887,-0.0998,-0.1053,-0.1329,-0.1383,-0.1788,-0.1863,-0.1949,-0.1953,-0.2057,-0.1948,-0.1914,-0.2078,-0.2069,-0.2095,-0.2087,-0.2195,-0.2198,-0.22,-0.2202,0,-0.0767,-0.0781,-0.0786,-0.0806,-0.0864,-0.0871,-0.0908,-0.1025,-0.1067,-0.1279,-0.1337,-0.1628,-0.1727,-0.191,-0.1978,-0.2055,-0.2083,-0.2188,-0.1949,-0.1926,-0.2106,-0.2094,-0.2205,-0.2205,-0.2206,-0.2207,-0.2208,0,-0.0847,-0.0856,-0.0833,-0.0932,-0.0937,-0.0916,-0.1013,-0.1032,-0.1196,-0.127,-0.1452,-0.1588,-0.1797,-0.1824,-0.2025,-0.2054,-0.1998,-0.2019,-0.2011,-0.1947,-0.1862,-0.1782,-0.1765,-0.1764,-0.1764,-0.1763,-0.1762,0,-0.0978,-0.0946,-0.0999,-0.0988,-0.1001,-0.1109,-0.1111,-0.1187,-0.1267,-0.1343,-0.1503,-0.158,-0.1651,-0.1708,-0.1839,-0.1944,-0.1927,-0.1939,-0.195,-0.1944,-0.1902,-0.1894,-0.2074,-0.1751,-0.1753,-0.1754,-0.1755,0,-0.1089,-0.1165,-0.1171,-0.1189,-0.1245,-0.1244,-0.1258,-0.1322,-0.1362,-0.1423,-0.1492,-0.1546,-0.1655,-0.1673,-0.1718,-0.1827,-0.1877,-0.1861,-0.1867,-0.1763,-0.1986,-0.1879,-0.1872,-0.2045,-0.2051,-0.2056,-0.1747,0,-0.1236,-0.1276,-0.1273,-0.1269,-0.1285,-0.1298,-0.1342,-0.1366,-0.1421,-0.1475,-0.1541,-0.1579,-0.1642,-0.1613,-0.1639,-0.1747,-0.1664,-0.176,-0.1826,-0.1835,-0.1666,-0.1672,-0.1599,-0.1599,-0.1599,-0.1598,0,0,-0.1366,-0.1363,-0.1432,-0.1401,-0.1428,-0.1513,-0.1478,-0.1506,-0.1532,-0.1581,-0.1565,-0.1627,-0.1634,-0.1692,-0.1665,-0.1639,-0.1639,-0.1682,-0.1776,-0.1795,-0.1813,-0.1661,-0.1667,-0.1598,-0.1598,-0.1598,-0.1598,0,-0.1396,-0.1478,-0.1444,-0.1463,-0.1498,-0.1529,-0.1535,-0.157,-0.1591,-0.159,-0.1626,-0.1663,-0.164,-0.1669,-0.1679,-0.1639,-0.1662,-0.1592,-0.164,-0.1769,-0.1788,-0.1806,-0.1659,-0.1664,-0.1598,-0.1598,-0.1598,0,-0.1455,-0.1494,-0.1503,-0.1539,-0.1568,-0.1549,-0.1615,-0.1637,-0.1624,-0.1689,-0.168,-0.1703,-0.171,-0.1695,-0.169,-0.1704,-0.1698,-0.1682,-0.168,-0.1729,-0.1868,-0.1886,-0.1903,-0.1713,-0.1714,-0.1714,0,0,-0.1468,-0.149,-0.1528,-0.1546,-0.156,-0.1608,-0.1626,-0.1643,-0.1673,-0.1684,-0.1704,-0.1713,-0.1718,-0.1728,-0.1716,-0.1725,-0.1747,-0.1701,-0.1695,-0.1691,-0.1737,-0.1873,-0.1888,-0.1717,-0.1718,-0.1718,0,0,-0.147,-0.1524,-0.1545,-0.1571,-0.1584,-0.1628,-0.164,-0.1672,-0.1693,-0.1708,-0.1743,-0.1749,-0.1741,-0.1743,-0.1782,-0.1725,-0.1737,-0.1732,-0.1758,-0.1751,-0.1746,-0.1807,-0.1803,0,0,0,0,0,-0.151,-0.1519,-0.1538,-0.155,-0.1613,-0.1624,-0.1632,-0.1662,-0.1704,-0.1688,-0.1723,-0.1745,-0.1739,-0.1776,-0.1786,-0.1773,-0.1759,-0.1751,-0.1744,-0.1777,-0.177,-0.1763,0,0,0,0,0,0,-0.1515,-0.1528,-0.1538,-0.1585,-0.1601,-0.1625,-0.1661,-0.1669,-0.1702,-0.1704,-0.174,-0.1745,-0.1755,-0.1774,-0.1782,-0.1768,-0.18,-0.1756,-0.175,-0.1744,-0.1775,-0.1768,-0.1763,0,0,0,0,0,-0.1519,-0.153,-0.162,-0.1586,-0.1599,-0.1645,-0.166,-0.1666,-0.1691,-0.1722,-0.1728,-0.1712,-0.1755,-0.1763,-0.1779,-0.1763,-0.1795,-0.1798,-0.1752,-0.1747,-0.1743,-0.1772,0,0,0,0,0,0,-0.1522,-0.1532,-0.1624,-0.163,-0.1579,-0.1642,-0.1651,-0.1664,-0.1707,-0.1714,-0.1694,-0.1694,-0.1755,-0.1761,-0.1768,-0.1759,-0.179,-0.1793,-0.1795,-0.1748,-0.1744,-0.1741,0,0,0,0,0,0,-0.1527,-0.1536,-0.1627,-0.1617,-0.1621,-0.1639,-0.1647,-0.1679,-0.1707,-0.1675,-0.1677,-0.1693,-0.1746,-0.176,-0.1765,-0.1814,-0.1787,-0.179,-0.1792,-0.1793,-0.1745,-0.1742,0,0,0,0,0,0,-0.1532,-0.154,-0.1615,-0.1619,-0.1623,-0.1687,-0.1667,-0.1728,-0.1707,-0.1672,-0.1706,-0.1705,-0.1745,-0.175,-0.1763,-0.181,-0.1813,-0.1787,-0.1789,-0.179,-0.1791,0,0,0,0,0,0,0,-0.1536,-0.1472,-0.1594,-0.162,-0.1624,-0.1685,-0.1686,-0.1688,-0.1707,-0.1706,-0.1706,-0.1705,-0.1771,-0.1774,-0.1777,-0.1807,0,0,-0.1787,-0.1788,0,0,0,0,0,0,0,0,-0.147,-0.1472,-0.1594,-0.1596,-0.1597,-0.1685,-0.1686,-0.1687,-0.1707,-0.1706,-0.1706,-0.1706,-0.1772,-0.1774,-0.1777,0,0,0,0,0,0,0,0,0,0,0,0,0,0,0,-0.1595,-0.1596,0,-0.1686,-0.1686,-0.1687,-0.1707,-0.1706,-0.1706,-0.1706,-0.1773,-0.1775,-0.1777,0,0,0,0,0,0,0,0,0,0,0,0,0,0,0,0,0,0,0,0,0,0,0,0,0,0,0,0,0,0,0,0,0,0,0,0,0,0,0,0,0,0,0,0,0,0,0,0,0,0,0,0,0,0,0,0,0,0,0,0,0,0,0,0,0,0,0,0,0]}],[{"header":{"parameterUnit":"kt","parameterCategory":2,"dx":1,"dy":1,"la1":30.253999710083008,"la2":30.299108505249023,"lo1":-89.0895004272461,"lo2":-89.04439544677734,"nx":28,"ny":28,"refTime":"2022-10-09T21:00:00:Z","depth":"4","parameterNumber":3,"parameterNumberName":"V-component_of_CURRENTS"},"data":[-0.0895,-0.0958,-0.099,-0.1057,-0.1109,-0.1199,-0.1241,-0.1258,-0.1192,-0.1183,-0.1083,-0.1017,-0.0829,-0.0985,-0.0623,-0.0579,-0.0626,-0.0324,-0.0318,-0.0476,-0.0499,-0.0519,-0.0618,0,0,0,0,0,-0.0909,-0.0936,-0.1018,-0.1115,-0.1208,-0.1259,-0.1315,-0.1361,-0.1364,-0.1252,-0.1277,-0.1105,-0.088,-0.0819,-0.0635,-0.0639,-0.0566,-0.0413,-0.0549,-0.049,-0.0516,-0.0603,0,0,0,0,0,0,-0.0926,-0.0972,-0.1048,-0.114,-0.1242,-0.1289,-0.1365,-0.1347,-0.138,-0.1371,-0.1286,-0.1208,-0.1168,-0.094,-0.074,-0.0588,-0.0589,-0.0563,-0.0583,-0.0606,-0.068,-0.0608,-0.0358,0,0,0,0,0,-0.0929,-0.0981,-0.1056,-0.1156,-0.1248,-0.1351,-0.1433,-0.1434,-0.1516,-0.1573,-0.1456,-0.1354,-0.1171,-0.1051,-0.0843,-0.0682,-0.0807,-0.0639,-0.0654,-0.0806,-0.0752,-0.0696,-0.0713,-0.0611,-0.0614,-0.0617,-0.0618,0,-0.0943,-0.0969,-0.1113,-0.1172,-0.1236,-0.1377,-0.1452,-0.1586,-0.1607,-0.1644,-0.1606,-0.1532,-0.1503,-0.1166,-0.1094,-0.0858,-0.0819,-0.0703,-0.0866,-0.0795,-0.0729,-0.074,-0.075,-0.0638,-0.0636,-0.0635,-0.0633,0,-0.0971,-0.1,-0.108,-0.1211,-0.1259,-0.1362,-0.1506,-0.1583,-0.169,-0.1722,-0.1749,-0.1768,-0.1632,-0.1546,-0.1382,-0.1261,-0.1081,-0.095,-0.1137,-0.1069,-0.0786,-0.0788,-0.0672,-0.0664,-0.0658,-0.0653,-0.0648,0,-0.0996,-0.1048,-0.112,-0.1152,-0.1274,-0.1346,-0.1484,-0.1583,-0.168,-0.1717,-0.1817,-0.1801,-0.1808,-0.1685,-0.1559,-0.1306,-0.1404,-0.1156,-0.1076,-0.1329,-0.1327,-0.1255,-0.1245,-0.1361,-0.1363,-0.1365,-0.1366,0,-0.0963,-0.1059,-0.1106,-0.1131,-0.1224,-0.1305,-0.1389,-0.151,-0.1571,-0.1707,-0.1723,-0.1812,-0.1801,-0.1739,-0.1553,-0.1576,-0.1401,-0.1419,-0.1137,-0.1117,-0.1261,-0.1248,-0.1368,-0.1369,-0.1369,-0.137,-0.1371,0,-0.0943,-0.0982,-0.106,-0.112,-0.1146,-0.123,-0.1349,-0.1442,-0.1552,-0.1589,-0.1679,-0.1671,-0.1739,-0.1671,-0.1615,-0.1623,-0.149,-0.141,-0.14,-0.1181,-0.1053,-0.1018,-0.1179,-0.1179,-0.1179,-0.1179,-0.118,0,-0.0841,-0.0919,-0.0936,-0.1035,-0.1058,-0.1075,-0.1181,-0.1257,-0.1299,-0.1379,-0.1441,-0.1528,-0.1501,-0.152,-0.1541,-0.1458,-0.1434,-0.1477,-0.1235,-0.1226,-0.1023,-0.1134,-0.1419,-0.1183,-0.1182,-0.1182,-0.1182,0,-0.0746,-0.0765,-0.0783,-0.0788,-0.0829,-0.0879,-0.0988,-0.1067,-0.1127,-0.1191,-0.1277,-0.1418,-0.139,-0.1423,-0.1407,-0.1414,-0.1421,-0.1295,-0.1291,-0.1153,-0.1328,-0.1152,-0.1132,-0.1406,-0.1409,-0.1411,-0.1184,0,-0.0599,-0.0629,-0.0678,-0.0719,-0.0758,-0.0807,-0.0829,-0.0878,-0.0873,-0.0894,-0.1027,-0.1055,-0.1125,-0.1168,-0.1132,-0.1257,-0.1141,-0.1128,-0.1004,-0.1155,-0.1029,-0.1028,-0.0987,-0.0984,-0.0981,-0.0979,0,0,-0.0457,-0.0513,-0.0506,-0.0558,-0.0579,-0.053,-0.0591,-0.0622,-0.0647,-0.0683,-0.0644,-0.0787,-0.0794,-0.0939,-0.1004,-0.1007,-0.0927,-0.0943,-0.1096,-0.111,-0.1122,-0.1011,-0.1013,-0.0974,-0.0973,-0.0972,-0.0971,0,-0.041,-0.0409,-0.0475,-0.0489,-0.0496,-0.0493,-0.0502,-0.0509,-0.0518,-0.0591,-0.0563,-0.0632,-0.0687,-0.074,-0.0768,-0.0952,-0.0817,-0.0967,-0.1066,-0.1072,-0.109,-0.1105,-0.0999,-0.1003,-0.0964,-0.0965,-0.0965,0,-0.0298,-0.0306,-0.034,-0.037,-0.0371,-0.042,-0.034,-0.0379,-0.0428,-0.0337,-0.0412,-0.0427,-0.0448,-0.0559,-0.0598,-0.0536,-0.068,-0.067,-0.0686,-0.0682,-0.0681,-0.0703,-0.0723,-0.0458,-0.0456,-0.0455,0,0,-0.0252,-0.0305,-0.03,-0.0358,-0.0363,-0.0337,-0.0349,-0.033,-0.0339,-0.0338,-0.0329,-0.0344,-0.0404,-0.0415,-0.046,-0.0536,-0.0466,-0.0609,-0.0633,-0.0653,-0.066,-0.0665,-0.0688,-0.0449,-0.0449,-0.0448,0,0,-0.0238,-0.0256,-0.0219,-0.0289,-0.0298,-0.0302,-0.0335,-0.0296,-0.0308,-0.0295,-0.025,-0.0249,-0.0342,-0.0316,-0.0243,-0.0433,-0.0335,-0.0349,-0.0442,-0.0471,-0.0494,-0.0493,-0.0163,0,0,0,0,0,-0.0188,-0.0257,-0.0222,-0.023,-0.0261,-0.0312,-0.0315,-0.0289,-0.0235,-0.0266,-0.0253,-0.0198,-0.0295,-0.0229,-0.0229,-0.0323,-0.0373,-0.0386,-0.0399,-0.0539,-0.057,-0.0597,0,0,0,0,0,0,-0.0191,-0.0202,-0.0221,-0.0228,-0.0234,-0.0309,-0.0239,-0.0233,-0.0233,-0.0225,-0.0204,-0.0198,-0.0177,-0.0224,-0.0226,-0.0317,-0.0162,-0.0378,-0.039,-0.04,-0.055,-0.0575,-0.0597,0,0,0,0,0,-0.0194,-0.0202,-0.0261,-0.0226,-0.0232,-0.0213,-0.0237,-0.0231,-0.0225,-0.0207,-0.02,-0.0205,-0.0179,-0.0177,-0.0225,-0.0318,-0.0161,-0.0161,-0.0386,-0.0395,-0.0403,-0.0562,0,0,0,0,0,0,-0.0195,-0.0192,-0.0261,-0.0261,-0.0204,-0.0208,-0.0209,-0.023,-0.0205,-0.02,-0.0207,-0.0202,-0.0181,-0.0179,-0.0178,-0.0324,-0.0159,-0.016,-0.0161,-0.0393,-0.04,-0.0406,0,0,0,0,0,0,-0.0187,-0.0193,-0.0261,-0.0235,-0.0232,-0.0204,-0.0205,-0.0221,-0.0205,-0.0205,-0.0201,-0.0205,-0.0176,-0.0181,-0.018,-0.0207,-0.0159,-0.0159,-0.016,-0.016,-0.0398,-0.0404,0,0,0,0,0,0,-0.0189,-0.0193,-0.0234,-0.0232,-0.0229,-0.0228,-0.0216,-0.0245,-0.0197,-0.0206,-0.0191,-0.0188,-0.0179,-0.0177,-0.0181,-0.0209,-0.0208,-0.0159,-0.0159,-0.0159,-0.016,0,0,0,0,0,0,0,-0.019,-0.0168,-0.0262,-0.023,-0.0227,-0.0264,-0.0264,-0.0264,-0.0197,-0.0194,-0.0192,-0.0189,-0.0154,-0.0155,-0.0156,-0.0211,0,0,-0.0158,-0.0159,0,0,0,0,0,0,0,0,-0.0165,-0.0167,-0.0262,-0.0262,-0.0262,-0.0264,-0.0264,-0.0264,-0.0196,-0.0194,-0.0192,-0.019,-0.0154,-0.0155,-0.0156,0,0,0,0,0,0,0,0,0,0,0,0,0,0,0,-0.0262,-0.0262,0,-0.0264,-0.0264,-0.0264,-0.0196,-0.0194,-0.0193,-0.0191,-0.0155,-0.0155,-0.0156,0,0,0,0,0,0,0,0,0,0,0,0,0,0,0,0,0,0,0,0,0,0,0,0,0,0,0,0,0,0,0,0,0,0,0,0,0,0,0,0,0,0,0,0,0,0,0,0,0,0,0,0,0,0,0,0,0,0,0,0,0,0,0,0,0,0,0,0,0]}]]]